60P/Tsuchinshan 2 (2025)

Japanese version
Home page
Updated on March 4, 2025

---------------------------------------------------------------------

* Profile

* Orbital Elements

Epoch 2025 May 5.0 TT = JDT 2460800.5
T 2025 July 20.61965 TT                                 Pike
q   1.6456692            (2000.0)            P               Q
n   0.14857998     Peri.  216.92039     -0.56259626     -0.82437536
a   3.5304429      Node   267.39634     +0.77265040     -0.49745464
e   0.5338632      Incl.    3.57988     +0.29410340     -0.27008176
P   6.63
From 1432 observations 2005 Oct. 5-2025 Feb. 23, mean residual 0".7.

* Finding Charts

* Magnitudes Graph

        m1 = 8.3 + 5 log d + 25 log r(t - 35)

---------------------------------------------------------------------

The orbital elements are published on M.P.E.C. 2025-D254.
The charts are made with StellaNavigator Ver.11 (AstroArts).
The magnitudes graphs are made with Comet for Windows.

---------------------------------------------------------------------

Copyright(C) Seiichi Yoshida (comet@aerith.net). All rights reserved.